Weather History for 11518 - August, 2013

Change the Weather History Date:

Friday, August 30, 2013

  Actual Average Record
Temperature  
Mean Temperature 62 °F -  
Max Temperature 74 °F 66 °F - ()
Min Temperature 51 °F 47 °F - ()
Degree Days  
Heating Degree Days 2    
Growing Degree Days 12 (Base 50)    
Moisture  
Dew Point 49 °F    
Average Humidity 66    
Maximum Humidity 94    
Minimum Humidity 36    
Precipitation  
Precipitation 0.00 in 0.05 in - ()
Sea Level Pressure  
Sea Level Pressure 30.14 in    
Wind  
Wind Speed 6 mph ()    
Max Wind Speed 9 mph    
Max Gust Speed -    
Visibility 6.2 miles    
Events      
T = Trace of Precipitation, MM = Missing Value Source: Averaged Metar Reports

Daily Weather History Graph

Daily Weather History Graph

Search for Another Location

Airport or City:

Trip Planner

Search our weather history database for the weather conditions in past years. The results will help you decide how hot, cold, wet, or windy it might be!

Date:

Astronomy

Aug. 30, 2013 Rise Set
Actual Time 6:14 AM CEST 7:51 PM CEST
Civil Twilight 5:40 AM CEST 8:25 PM CEST
Nautical Twilight 4:59 AM CEST 9:06 PM CEST
Astronomical Twilight 4:13 AM CEST 9:51 PM CEST
Moon 12:21 AM CEST 4:11 PM CEST
Length of Visible Light 14h 44m
Length of Day
13h 36m
Waning Crescent, 31% of the Moon is Illuminated
Aug 30
Waning Crescent
Sep 5
New
Sep 12
First Quarter
Sep 19
Full
Sep 27
Last Quarter

Hourly Weather History & Observations

Time (CEST) Temp. Dew Point Humidity Pressure Visibility Wind Dir Wind Speed Gust Speed Precip Events Conditions
12:00 AM 53.6 °F 48.2 °F 82% 30.18 in - West 9.2 mph - N/A   Clear
12:30 AM 55.4 °F 50.0 °F 82% 30.18 in - West 8.1 mph - N/A   Clear
1:00 AM 55.4 °F 48.2 °F 77% 30.18 in - West 6.9 mph - N/A   Clear
1:30 AM 55.4 °F 48.2 °F 77% 30.18 in - West 9.2 mph - N/A   Clear
2:00 AM 54 °F 49 °F 77% 30.19 in 25 mi WSW 6.7 mph - -   Scattered Clouds
2:00 AM 53.6 °F 48.2 °F 82% 30.18 in - West 8.1 mph - N/A   Clear
2:30 AM 53.6 °F 50.0 °F 88% 30.18 in - West 8.1 mph - N/A   Clear
3:00 AM 53.6 °F 48.2 °F 82% 30.18 in - WSW 6.9 mph - N/A   Clear
3:30 AM 51.8 °F 48.2 °F 88% 30.18 in - WSW 8.1 mph - N/A   Clear
4:00 AM 51.8 °F 48.2 °F 88% 30.15 in - SW 8.1 mph - N/A   Clear
4:30 AM 51.8 °F 48.2 °F 88% 30.15 in - SW 9.2 mph - N/A   Clear
5:00 AM 51.8 °F 48.2 °F 88% 30.15 in - SW 8.1 mph - N/A   Clear
5:30 AM 51.8 °F 48.2 °F 88% 30.15 in - SSW 8.1 mph - N/A   Clear
6:00 AM 51.8 °F 48.2 °F 88% 30.15 in - West 3.5 mph - N/A   Clear
6:30 AM 51.8 °F 48.2 °F 88% 30.15 in - SW 8.1 mph - N/A   Clear
7:00 AM 51.8 °F 48.2 °F 88% 30.15 in - SW 6.9 mph - N/A   Clear
7:30 AM 51.8 °F 50.0 °F 94% 30.15 in - Calm Calm - N/A   Clear
8:00 AM 55.4 °F 51.8 °F 88% 30.15 in - Variable 2.3 mph - N/A   Clear
8:30 AM 57.2 °F 51.8 °F 82% 30.15 in - SSW 3.5 mph - N/A   Clear
9:00 AM 59.0 °F 51.8 °F 77% 30.15 in - Variable 2.3 mph - N/A   Clear
9:30 AM 60.8 °F 51.8 °F 72% 30.18 in - Variable 2.3 mph - N/A   Clear
10:00 AM 64.4 °F 53.6 °F 68% 30.18 in - Variable 2.3 mph - N/A   Clear
10:30 AM 66.2 °F 53.6 °F 64% 30.18 in - South 3.5 mph - N/A   Clear
11:00 AM 68.0 °F 55.4 °F 64% 30.15 in - Variable 2.3 mph - N/A   Clear
11:30 AM 69.8 °F 51.8 °F 53% 30.15 in - WSW 3.5 mph - N/A   Clear
12:00 PM 71.6 °F 50.0 °F 46% 30.15 in 6.2 mi SSW 3.5 mph - N/A   Partly Cloudy
12:30 PM 71.6 °F 48.2 °F 43% 30.15 in 6.2 mi WSW 4.6 mph - N/A   Partly Cloudy
1:00 PM 69.8 °F 48.2 °F 46% 30.15 in 6.2 mi SSE 4.6 mph - N/A   Mostly Cloudy
1:30 PM 71.6 °F 46.4 °F 41% 30.15 in - Variable 1.2 mph - N/A   Clear
2:00 PM 70 °F 49 °F 36% 30.12 in 25 mi NE 2.2 mph - -   Mostly Cloudy
2:00 PM 69.8 °F 48.2 °F 46% 30.15 in - Variable 1.2 mph - N/A   Clear
2:30 PM 71.6 °F 48.2 °F 43% 30.12 in - Variable 2.3 mph - N/A   Clear
3:00 PM 73.4 °F 48.2 °F 41% 30.12 in - Variable 2.3 mph - N/A   Clear
3:30 PM 73.4 °F 48.2 °F 41% 30.12 in - Variable 2.3 mph - N/A   Clear
4:00 PM 73.4 °F 46.4 °F 38% 30.12 in - SW 3.5 mph - N/A   Clear
4:30 PM 73.4 °F 46.4 °F 38% 30.12 in - WSW 6.9 mph - N/A   Clear
5:00 PM 73.4 °F 50.0 °F 44% 30.12 in - SSW 5.8 mph - N/A   Clear
5:30 PM 71.6 °F 46.4 °F 41% 30.09 in - SSW 6.9 mph - N/A   Clear
6:00 PM 71.6 °F 46.4 °F 41% 30.09 in - WSW 6.9 mph - N/A   Clear
6:30 PM 71.6 °F 48.2 °F 43% 30.09 in - WSW 5.8 mph - N/A   Clear
7:00 PM 68.0 °F 48.2 °F 49% 30.09 in - WSW 6.9 mph - N/A   Clear
7:30 PM 66.2 °F 50.0 °F 56% 30.09 in - SW 4.6 mph - N/A   Clear
8:00 PM 64 °F 49 °F 48% 30.09 in 31 mi SW 6.7 mph - -   Scattered Clouds
8:00 PM 64.4 °F 50.0 °F 59% 30.09 in - SSW 4.6 mph - N/A   Clear
8:30 PM 62.6 °F 50.0 °F 63% 30.12 in - SW 5.8 mph - N/A   Clear
9:00 PM 62.6 °F 50.0 °F 63% 30.12 in - SW 6.9 mph - N/A   Clear
9:30 PM 60.8 °F 50.0 °F 68% 30.12 in - SW 8.1 mph - N/A   Clear
10:00 PM 60.8 °F 51.8 °F 72% 30.12 in - SW 8.1 mph - N/A   Clear
10:30 PM 60.8 °F 50.0 °F 68% 30.12 in - SW 8.1 mph - N/A   Clear
11:00 PM 59.0 °F 51.8 °F 77% 30.12 in - SW 8.1 mph - N/A   Clear
11:30 PM 59.0 °F 51.8 °F 77% 30.12 in - SW 9.2 mph - N/A   Clear